When you browse on this site, cookies collect data to enhance your experience and personalize the content and advertising you see.
Visit our Privacy Policy to learn more. By continuing to use the site, you agree to this use of cookies and data.
  • In Sweden
  • List of Countries
  • For 7 days
  • Water Temperature
  • Weather Map
  • Weather Widgets
  • user-avatar
    Login

    Hourly Weather Soczewka

    Today, 20 February, Thursday

    Time Temperature Precipitation Wind Pressure Humidity
    00:00 +1°C° 0 mm 4 mps 755 mmHg 86%
    01:00 0°C° 0 mm 4 mps 755 mmHg 88%
    02:00 0°C° 0 mm 4 mps 756 mmHg 89%
    03:00 0°C° 0 mm 4 mps 756 mmHg 90%
    04:00 +1°C° 0 mm 3 mps 756 mmHg 92%
    05:00 +1°C° 0 mm 3 mps 757 mmHg 91%
    06:00 +1°C° 0 mm 3 mps 757 mmHg 91%
    07:00 +1°C° 0 mm 3 mps 758 mmHg 91%
    08:00 +2°C° 0 mm 3 mps 758 mmHg 88%
    09:00 +3°C° 0 mm 3 mps 759 mmHg 84%
    10:00 +3°C° 0 mm 3 mps 759 mmHg 81%
    11:00 +4°C° 0 mm 3 mps 759 mmHg 79%
    12:00 +4°C° 0 mm 3 mps 759 mmHg 76%
    13:00 +4°C° 0 mm 3 mps 759 mmHg 74%
    14:00 +4°C° 0 mm 3 mps 759 mmHg 73%
    15:00 +4°C° 0 mm 3 mps 759 mmHg 72%
    16:00 +4°C° 0 mm 3 mps 759 mmHg 71%
    17:00 +4°C° 0 mm 3 mps 759 mmHg 73%
    18:00 +3°C° 0 mm 3 mps 758 mmHg 76%
    19:00 +2°C° 0 mm 3 mps 758 mmHg 78%
    20:00 +1°C° 0 mm 4 mps 758 mmHg 77%
    21:00 +1°C° 0 mm 5 mps 757 mmHg 76%
    22:00 +1°C° 0 mm 5 mps 756 mmHg 75%
    23:00 +1°C° 0 mm 6 mps 756 mmHg 74%

    Tomorrow, 21 February, Friday

    Time Temperature Precipitation Wind Pressure Humidity
    00:00 +1°C° 0 mm 6 mps 756 mmHg 72%
    01:00 +1°C° 0 mm 6 mps 755 mmHg 71%
    02:00 0°C° 0 mm 7 mps 754 mmHg 73%
    03:00 0°C° 0 mm 7 mps 753 mmHg 76%
    04:00 +2°C° 0 mm 7 mps 752 mmHg 78%
    05:00 +2°C° 0.4 mm 7 mps 752 mmHg 83%
    06:00 +1°C° 0.4 mm 8 mps 751 mmHg 88%
    07:00 +1°C° 0.4 mm 8 mps 751 mmHg 92%
    14:00 +4°C° 0.1 mm 8 mps 757 mmHg 61%
    15:00 +4°C° 0.1 mm 8 mps 758 mmHg 63%
    16:00 +4°C° 0.1 mm 7 mps 758 mmHg 65%
    17:00 +3°C° 0 mm 6 mps 759 mmHg 69%
    18:00 +2°C° 0 mm 6 mps 760 mmHg 72%
    19:00 +2°C° 0 mm 5 mps 760 mmHg 75%
    20:00 +1°C° 0 mm 5 mps 761 mmHg 77%
    21:00 +1°C° 0 mm 5 mps 761 mmHg 80%
    22:00 +1°C° 0 mm 4 mps 761 mmHg 82%
    23:00 0°C° 0 mm 4 mps 761 mmHg 83%

    Day after tomorrow, 22 February, Saturday

    Time Temperature Precipitation Wind Pressure Humidity
    00:00 0°C° 0 mm 4 mps 761 mmHg 84%
    01:00 0°C° 0 mm 4 mps 761 mmHg 85%
    02:00 0°C° 0 mm 4 mps 761 mmHg 85%
    03:00 -1°C° 0 mm 4 mps 761 mmHg 86%
    04:00 -1°C° 0 mm 5 mps 761 mmHg 86%
    05:00 -1°C° 0 mm 5 mps 760 mmHg 85%
    06:00 -1°C° 0 mm 5 mps 760 mmHg 84%
    07:00 -1°C° 0 mm 6 mps 760 mmHg 83%
    08:00 +1°C° 0 mm 6 mps 760 mmHg 79%
    09:00 +2°C° 0 mm 7 mps 759 mmHg 76%
    10:00 +3°C° 0 mm 7 mps 758 mmHg 72%
    11:00 +2°C° 0 mm 8 mps 758 mmHg 69%
    12:00 +4°C° 0 mm 8 mps 757 mmHg 65%
    13:00 +5°C° 0 mm 9 mps 756 mmHg 62%
    14:00 +5°C° 0 mm 8 mps 755 mmHg 60%
    15:00 +5°C° 0 mm 8 mps 754 mmHg 59%
    16:00 +6°C° 0 mm 8 mps 753 mmHg 58%
    17:00 +6°C° 0 mm 8 mps 753 mmHg 56%
    18:00 +6°C° 0 mm 8 mps 753 mmHg 55%
    19:00 +6°C° 0 mm 8 mps 752 mmHg 54%
    20:00 +6°C° 0 mm 8 mps 752 mmHg 56%
    21:00 +6°C° 0 mm 9 mps 751 mmHg 57%
    22:00 +6°C° 0 mm 9 mps 751 mmHg 59%
    23:00 +6°C° 0.4 mm 9 mps 751 mmHg 66%

    23 February, Sunday

    Time Temperature Precipitation Wind Pressure Humidity
    00:00 +5°C° 0.4 mm 9 mps 751 mmHg 74%
    01:00 +5°C° 0.4 mm 9 mps 751 mmHg 81%
    02:00 +3°C° 0.3 mm 9 mps 751 mmHg 78%
    03:00 +4°C° 0.3 mm 8 mps 751 mmHg 76%
    04:00 +2°C° 0.3 mm 8 mps 751 mmHg 74%
    05:00 +3°C° 0 mm 7 mps 751 mmHg 76%
    06:00 +2°C° 0 mm 7 mps 752 mmHg 78%
    07:00 +2°C° 0 mm 6 mps 752 mmHg 80%
    08:00 +2°C° 0 mm 7 mps 752 mmHg 75%
    09:00 +2°C° 0 mm 8 mps 753 mmHg 70%
    10:00 +2°C° 0 mm 8 mps 753 mmHg 66%
    11:00 +2°C° 0.1 mm 8 mps 753 mmHg 68%
    12:00 +2°C° 0.1 mm 9 mps 753 mmHg 71%
    13:00 +2°C° 0.1 mm 9 mps 752 mmHg 74%
    14:00 +2°C° 0.1 mm 8 mps 752 mmHg 70%
    15:00 +2°C° 0.1 mm 8 mps 751 mmHg 65%
    16:00 +2°C° 0.1 mm 8 mps 751 mmHg 61%
    17:00 +2°C° 0.1 mm 7 mps 751 mmHg 69%
    18:00 +2°C° 0.1 mm 7 mps 751 mmHg 77%
    19:00 +1°C° 0.1 mm 6 mps 750 mmHg 86%
    20:00 +1°C° 0 mm 6 mps 750 mmHg 84%
    21:00 +1°C° 0 mm 6 mps 750 mmHg 83%
    22:00 +1°C° 0 mm 6 mps 750 mmHg 81%
    23:00 +1°C° 0 mm 6 mps 750 mmHg 80%

    24 February, Monday

    Time Temperature Precipitation Wind Pressure Humidity
    00:00 0°C° 0 mm 7 mps 750 mmHg 79%
    01:00 0°C° 0 mm 8 mps 751 mmHg 78%
    02:00 0°C° 0 mm 8 mps 751 mmHg 79%
    03:00 0°C° 0 mm 8 mps 752 mmHg 79%
    04:00 0°C° 0 mm 9 mps 752 mmHg 79%
    05:00 0°C° 0 mm 8 mps 753 mmHg 79%
    06:00 0°C° 0 mm 8 mps 754 mmHg 78%
    07:00 0°C° 0 mm 8 mps 755 mmHg 77%
    08:00 +1°C° 0 mm 8 mps 755 mmHg 73%
    09:00 +1°C° 0 mm 8 mps 756 mmHg 69%
    10:00 +2°C° 0 mm 9 mps 756 mmHg 66%
    11:00 +2°C° 0 mm 9 mps 757 mmHg 63%
    12:00 +3°C° 0 mm 9 mps 757 mmHg 60%
    13:00 +3°C° 0 mm 9 mps 757 mmHg 57%
    14:00 +4°C° 0 mm 8 mps 757 mmHg 57%
    15:00 +4°C° 0 mm 7 mps 758 mmHg 57%
    16:00 +3°C° 0 mm 6 mps 758 mmHg 58%
    17:00 +3°C° 0 mm 5 mps 757 mmHg 63%
    18:00 +3°C° 0 mm 4 mps 757 mmHg 68%
    19:00 +2°C° 0 mm 3 mps 757 mmHg 74%
    20:00 +2°C° 0 mm 3 mps 757 mmHg 76%
    21:00 +2°C° 0 mm 3 mps 756 mmHg 78%
    22:00 +2°C° 0 mm 3 mps 756 mmHg 79%
    23:00 0°C° 0.4 mm 5 mps 754 mmHg 84%

    25 February, Tuesday

    Time Temperature Precipitation Wind Pressure Humidity
    00:00 -1°C° 0.4 mm 6 mps 753 mmHg 89%
    01:00 -1°C° 0.4 mm 7 mps 752 mmHg 94%
    02:00 -1°C° 1.5 mm 6 mps 751 mmHg 93%
    03:00 +1°C° 1.5 mm 6 mps 750 mmHg 93%
    04:00 +1°C° 1.5 mm 5 mps 748 mmHg 93%
    05:00 +3°C° 0.3 mm 5 mps 748 mmHg 93%
    06:00 +5°C° 0.3 mm 5 mps 748 mmHg 93%
    07:00 +6°C° 0.3 mm 5 mps 748 mmHg 93%
    08:00 +7°C° 0.1 mm 6 mps 748 mmHg 89%
    09:00 +8°C° 0.1 mm 6 mps 748 mmHg 84%
    10:00 +8°C° 0.1 mm 6 mps 748 mmHg 80%
    11:00 +8°C° 0 mm 6 mps 748 mmHg 76%
    12:00 +8°C° 0 mm 6 mps 748 mmHg 72%
    13:00 +8°C° 0 mm 6 mps 747 mmHg 68%
    14:00 +8°C° 0 mm 6 mps 747 mmHg 66%
    15:00 +8°C° 0 mm 6 mps 747 mmHg 64%
    16:00 +8°C° 0 mm 6 mps 747 mmHg 63%
    17:00 +7°C° 0 mm 5 mps 747 mmHg 64%
    18:00 +6°C° 0 mm 5 mps 747 mmHg 66%
    19:00 +5°C° 0 mm 4 mps 747 mmHg 68%
    20:00 +4°C° 0 mm 4 mps 747 mmHg 70%
    21:00 +4°C° 0 mm 4 mps 747 mmHg 72%
    22:00 +3°C° 0 mm 4 mps 747 mmHg 74%
    23:00 +3°C° 0 mm 4 mps 747 mmHg 76%
    Show more